MEGLR Weather Reports


Display with metric or nautical units.
time (UTC)temp
F
wind
direction
speed
MPH
gust
MPH
rain 1hr
in
rain 24hr
in
rain mn
in
humidity
%
barometer
mb
20260504231003 54 230 25.0 30.0 0.00 0.00 0.00 92
20260504230004 54 225 26.0 30.0 0.00 0.00 0.00 93
20260504225003 54 225 22.0 28.0 0.00 0.00 0.00 93
20260504224002 54 225 25.0 28.0 0.00 0.00 0.00 93
20260504223002 54 230 21.0 26.0 0.00 0.00 0.00 93
20260504222003 54 230 22.0 27.0 0.00 0.00 0.00 93
20260504221003 55 230 21.0 25.0 0.00 0.00 0.00 91
20260504220003 55 230 24.0 27.0 0.00 0.00 0.00 90
20260504215003 55 230 20.0 27.0 0.00 0.00 0.00 90
20260504214003 55 230 23.0 27.0 0.00 0.00 0.00 90
20260504213003 55 230 24.0 27.0 0.00 0.00 0.00 89
20260504212003 55 230 23.0 28.0 0.00 0.00 0.00 90
20260504211002 55 230 21.0 25.0 0.00 0.00 0.00 88
20260504210004 55 230 21.0 25.0 0.00 0.00 0.00 88
20260504205003 55 230 21.0 25.0 0.00 0.00 0.00 88
20260504204005 55 230 20.0 26.0 0.00 0.00 0.00 89
20260504203003 55 230 23.0 25.0 0.00 0.00 0.00 88
20260504202002 55 230 22.0 25.0 0.00 0.00 0.00 87
20260504201002 55 230 21.0 25.0 0.00 0.00 0.00 86
20260504200003 55 230 22.0 26.0 0.00 0.00 0.00 87
20260504195003 55 230 20.0 25.0 0.00 0.00 0.00 87
20260504194003 55 230 21.0 25.0 0.00 0.00 0.00 87
20260504193003 55 230 21.0 23.0 0.00 0.00 0.00 88
20260504192003 55 225 18.0 25.0 0.00 0.00 0.00 89
20260504191003 55 230 21.0 23.0 0.00 0.00 0.00 88
20260504190002 55 235 18.0 20.0 0.00 0.00 0.00 88
20260504185002 55 230 17.0 21.0 0.00 0.00 0.00 89
20260504184003 55 230 15.0 21.0 0.00 0.00 0.00 89
20260504183003 55 230 18.0 23.0 0.00 0.00 0.00 89
20260504182003 55 235 16.0 19.0 0.00 0.00 0.00 89
20260504181003 55 230 17.0 21.0 0.00 0.00 0.00 90
20260504180003 55 235 18.0 20.0 0.00 0.00 0.00 90
20260504175002 55 235 16.0 20.0 0.00 0.00 0.00 91
20260504174003 54 225 17.0 20.0 0.00 0.00 0.00 90
20260504173003 54 230 15.0 19.0 0.00 0.00 0.00 90
20260504172003 55 235 14.0 17.0 0.00 0.00 0.00 90
20260504171003 54 225 12.0 17.0 0.00 0.00 0.00 92
20260504151003 52 225 15.0 17.0 0.00 0.00 0.00 98
20260504141003 52 215 16.0 20.0 0.00 0.00 0.00 99
20260504082003 51 220 17.0 25.0 0.00 0.00 0.00 99
20260504081002 51 225 20.0 25.0 0.00 0.00 0.00 99
20260504050003 75 70 6.0 10.0 0.00 0.00 0.00 19
20260504045003 76 70 5.0 9.0 0.00 0.00 0.00 15
20260504044003 76 80 8.0 10.0 0.00 0.00 0.00 15
20260504043004 76 85 8.0 10.0 0.00 0.00 0.00 18
20260504042002 76 95 6.0 8.0 0.00 0.00 0.00 18
20260504041002 77 50 4.0 6.0 0.00 0.00 0.00 16
20260504040003 76 90 2.0 7.0 0.00 0.00 0.00 18
20260504035003 77 15 5.0 12.0 0.00 0.00 0.00 19
20260504034003 76 360 1.0 10.0 0.00 0.00 0.00 22
20260504033008 77 30 2.0 13.0 0.00 0.00 0.00 21
20260504032003 77 355 8.0 15.0 0.00 0.00 0.00 20
20260504031002 78 340 5.0 13.0 0.00 0.00 0.00 21
20260504030003 78 35 2.0 15.0 0.00 0.00 0.00 23
20260504025003 78 360 5.0 14.0 0.00 0.00 0.00 22
20260504024003 79 360 5.0 10.0 0.00 0.00 0.00 23
20260504023003 79 10 4.0 11.0 0.00 0.00 0.00 24
20260504022003 76 345 6.0 17.0 0.00 0.00 0.00 31
20260504021002 76 345 6.0 17.0 0.00 0.00 0.00 31
20260504020003 78 340 16.0 19.0 0.00 0.00 0.00 27
20260504015003 78 335 17.0 19.0 0.00 0.00 0.00 27
20260504014003 79 335 17.0 20.0 0.00 0.00 0.00 27
20260504013003 79 330 17.0 20.0 0.00 0.00 0.00 26
20260504012002 79 335 18.0 21.0 0.00 0.00 0.00 26
20260504011002 80 335 20.0 22.0 0.00 0.00 0.00 24
20260504010003 81 335 22.0 23.0 0.00 0.00 0.00 23
20260504005003 81 335 18.0 21.0 0.00 0.00 0.00 23
20260504004003 81 335 15.0 17.0 0.00 0.00 0.00 21
20260504003003 82 335 16.0 18.0 0.00 0.00 0.00 20
20260504002003 82 340 14.0 17.0 0.00 0.00 0.00 19
20260504001002 83 335 17.0 18.0 0.00 0.00 0.00 19
20260504000003 83 335 16.0 18.0 0.00 0.00 0.00 20
20260503235003 83 335 16.0 17.0 0.00 0.00 0.00 21
20260503234003 83 330 15.0 17.0 0.00 0.00 0.00 19
20260503233004 83 330 16.0 18.0 0.00 0.00 0.00 17
20260503232002 83 330 16.0 17.0 0.00 0.00 0.00 18